Flag for Poland Weather past 2 weeks in Zielona Góra, Poland

Now
51 °F

Fog.


Feels Like: 51 °F
Forecast: 42 / 55 °F
Wind: 3 mph from West

Location: Zielona Gora

Current Time: Sep 22, 2014 at 6:30:01 AM

Latest Report: Sep 22, 2014 at 5:00 AM


Visibility: 4 mi

Pressure: 29.79 "Hg

Humidity: 95%

Dew point: 50 °F

Location of Zielona GóraLocation

Historic Weather in Zielona Góra — Graph

°F

Zielona Góra temperature yesterday

Maximum temperature yesterday: 66 °F (at 2:00 PM)
Minimum temperature yesterday: 56 °F (at 11:00 PM)
Average temperature yesterday: 62 °F

Past Weeks' High & Low Weather Summary

 TemperatureHumidityPressure
High79 °F (Sep 7, 4:00 PM)100% (Sep 13, 7:00 AM)30.15 "Hg (Sep 13, 7:00 AM)
Low51 °F (Sep 22, 5:00 AM)49% (Sep 15, 5:00 PM)29.79 "Hg (Sep 22, 5:00 AM)
Average62 °F82%30.01 "Hg
* Reported Sep 7 5:00 AM — Sep 22 5:00 AM, Zielona Góra, Weather by CustomWeather, © 2014

Note: Actual official high and low records may vary slightly from our data, if they occured in-between our weather recording intervals... More about our weather records

Advertising

Zielona Góra weather history for previous 24 hours

 ConditionsComfort  
Time TempWeatherWind HumidityBarometerVisibility
5:00 AM
Sep 22
51 °FFog.3 mph95%29.79 "Hg4 mi
4:00 AM52 °FFog.3 mph95%29.80 "Hg5 mi
3:00 AM53 °FLow clouds.5 mph94%29.81 "Hg6 mi
2:00 AM54 °FLow clouds.5 mph96%29.81 "Hg6 mi
1:00 AM55 °FOvercast.3 mph94%29.82 "Hg7 mi
12:00 AM56 °FOvercast.3 mph94%29.82 "Hg6 mi
11:00 PM
Sep 21
56 °FLow clouds.3 mph96%29.82 "Hg5 mi
10:00 PM57 °FSprinkles. Low clouds.6 mph91%29.82 "Hg5 mi
9:00 PM58 °FFog.2 mph96%29.81 "Hg3 mi
8:00 PM59 °FOvercast.2 mph96%29.81 "Hg3 mi
7:00 PM59 °FSprinkles. Overcast.2 mph95%29.81 "Hg4 mi
6:00 PM63 °FRain showers. Overcast.3 mph87%29.80 "Hg4 mi
5:00 PM65 °FOvercast.3 mph82%29.80 "Hg6 mi
4:00 PM66 °FOvercast.2 mph77%29.81 "Hg6 mi
3:00 PM66 °FOvercast.3 mph75%29.82 "Hg7 mi
2:00 PM66 °FOvercast.2 mph71%29.83 "Hg7 mi
1:00 PM65 °FOvercast.3 mph80%29.84 "Hg6 mi
12:00 PM63 °FOvercast.3 mph84%29.85 "Hg6 mi
11:00 AM62 °FFog.3 mph86%29.85 "Hg5 mi
10:00 AM60 °FFog.3 mph95%29.85 "Hg2 mi
9:00 AM61 °FFog.3 mph94%29.84 "Hg2 mi
8:00 AM61 °FFog.3 mph99%29.84 "Hg1 mi
7:00 AM61 °FFog.2 mph99%29.84 "Hg0 mi
6:00 AM61 °FFog.2 mph98%29.85 "Hg1 mi
Weather by CustomWeather, © 2014

See weather overviewHow to use our weather pages